TimeEDT,TemperatureF,Dew PointF,Humidity,Sea Level PressureIn,VisibilityMPH,Wind Direction,Wind SpeedMPH,Gust SpeedMPH,PrecipitationIn,Events,Conditions,WindDirDegrees,DateUTC
12:58 AM,29.7,22.5,75,30.10,10.0,East,5.8,-,N/A,,Mostly Cloudy,100,2014-04-04 04:58:00
1:58 AM,28.6,22.6,78,30.08,10.0,East,6.9,-,N/A,,Mostly Cloudy,80,2014-04-04 05:58:00
2:58 AM,28.0,22.5,80,30.04,10.0,East,8.1,-,N/A,,Overcast,100,2014-04-04 06:58:00
3:58 AM,28.2,23.0,81,30.03,10.0,SE,6.9,-,N/A,,Overcast,130,2014-04-04 07:58:00
4:58 AM,28.8,23.5,81,30.00,10.0,ESE,10.4,-,N/A,,Overcast,120,2014-04-04 08:58:00
5:58 AM,31.8,24.8,75,29.98,10.0,SE,11.5,-,N/A,,Overcast,140,2014-04-04 09:58:00
6:58 AM,34.3,26.4,73,29.99,10.0,SSE,10.4,-,N/A,,Overcast,150,2014-04-04 10:58:00
7:58 AM,36.3,26.6,68,29.99,10.0,SE,11.5,-,N/A,,Mostly Cloudy,130,2014-04-04 11:58:00
8:58 AM,38.3,26.4,62,29.95,10.0,SE,13.8,-,N/A,,Overcast,130,2014-04-04 12:58:00
9:58 AM,39.7,27.3,61,29.90,10.0,SE,15.0,-,N/A,,Overcast,130,2014-04-04 13:58:00
10:58 AM,41.9,27.7,57,29.88,10.0,SE,17.3,27.6,N/A,,Overcast,140,2014-04-04 14:58:00
11:58 AM,43.7,29.3,57,29.87,10.0,SSE,16.1,-,N/A,,Mostly Cloudy,150,2014-04-04 15:58:00
12:02 PM,42.8,30.2,61,29.85,10.0,SSE,16.1,-,N/A,Rain,Light Rain,150,2014-04-04 16:02:00
12:11 PM,42.8,30.2,61,29.84,10.0,SSE,18.4,23.0,N/A,,Overcast,150,2014-04-04 16:11:00
12:30 PM,42.8,32.0,66,29.82,10.0,SSE,12.7,-,N/A,Rain,Light Rain,150,2014-04-04 16:30:00
12:56 PM,42.8,32.0,66,29.80,10.0,SE,16.1,-,N/A,,Overcast,140,2014-04-04 16:56:00
12:58 PM,42.8,32.0,66,29.82,10.0,SE,15.0,-,0.00,,Overcast,140,2014-04-04 16:58:00
12:59 PM,42.8,32.0,66,29.80,10.0,SE,16.1,-,N/A,Rain,Light Rain,140,2014-04-04 16:59:00
1:17 PM,42.8,32.0,66,29.79,10.0,SE,17.3,25.3,N/A,,Overcast,140,2014-04-04 17:17:00
1:58 PM,43.7,32.2,64,29.76,10.0,SE,20.7,27.6,0.00,,Overcast,140,2014-04-04 17:58:00
2:58 PM,43.3,32.5,66,29.69,10.0,SE,23.0,32.2,N/A,,Overcast,140,2014-04-04 18:58:00
3:30 PM,42.8,32.0,66,29.65,10.0,SE,20.7,26.5,N/A,Rain,Light Rain,140,2014-04-04 19:30:00
3:54 PM,42.8,33.8,70,29.65,10.0,SSE,16.1,26.5,N/A,,Overcast,150,2014-04-04 19:54:00
3:58 PM,41.9,34.3,75,29.67,10.0,SSE,19.6,29.9,0.01,,Overcast,150,2014-04-04 19:58:00
4:07 PM,41.0,35.6,81,29.64,9.0,SSE,20.7,36.8,N/A,,Overcast,150,2014-04-04 20:07:00
4:27 PM,41.0,35.6,81,29.61,10.0,SE,20.7,29.9,N/A,,Overcast,140,2014-04-04 20:27:00
4:58 PM,39.6,36.5,89,29.59,7.0,SSE,24.2,32.2,0.06,,Overcast,150,2014-04-04 20:58:00
5:58 PM,38.5,37.6,97,29.54,4.0,SSE,27.6,40.3,0.18,,Overcast,150,2014-04-04 21:58:00
6:38 PM,37.4,37.4,100,29.49,2.0,SE,29.9,47.2,N/A,,Overcast,140,2014-04-04 22:38:00
6:43 PM,37.4,37.4,100,29.52,2.0,South,25.3,43.7,N/A,,Overcast,190,2014-04-04 22:43:00
6:47 PM,37.4,37.4,100,29.52,3.0,SSE,31.1,40.3,N/A,,Overcast,150,2014-04-04 22:47:00
6:58 PM,37.8,37.8,100,29.55,4.0,SSE,27.6,42.6,0.15,,Overcast,160,2014-04-04 22:58:00
7:18 PM,37.4,37.4,100,29.56,10.0,South,17.3,35.7,N/A,,Overcast,170,2014-04-04 23:18:00
7:35 PM,37.4,37.4,100,29.54,10.0,SSE,23.0,31.1,N/A,Rain,Light Rain,150,2014-04-04 23:35:00
7:36 PM,39.2,37.4,93,29.54,10.0,SSE,24.2,32.2,N/A,,Overcast,150,2014-04-04 23:36:00
7:51 PM,39.2,37.4,93,29.55,10.0,SSE,19.6,40.3,N/A,,Overcast,160,2014-04-04 23:51:00
7:58 PM,38.5,37.4,96,29.55,10.0,SSE,23.0,29.9,0.03,,Overcast,150,2014-04-04 23:58:00
8:03 PM,39.2,37.4,93,29.53,10.0,SSE,25.3,29.9,N/A,,Overcast,150,2014-04-05 00:03:00
8:12 PM,39.2,37.4,93,29.54,10.0,SSE,23.0,36.8,N/A,Rain,Light Rain,150,2014-04-05 00:12:00
8:22 PM,39.2,37.4,93,29.55,10.0,SSE,13.8,31.1,N/A,,Overcast,160,2014-04-05 00:22:00
8:53 PM,39.2,37.4,93,29.55,10.0,SSE,19.6,26.5,N/A,,Overcast,160,2014-04-05 00:53:00
8:55 PM,39.2,37.4,93,29.55,10.0,SSE,19.6,-,N/A,Rain,Light Rain,150,2014-04-05 00:55:00
8:58 PM,38.5,36.9,94,29.57,10.0,SSE,23.0,-,0.00,Rain,Light Rain,150,2014-04-05 00:58:00
9:03 PM,39.2,37.4,93,29.55,10.0,SSE,20.7,31.1,N/A,Rain,Light Rain,150,2014-04-05 01:03:00
9:08 PM,37.4,37.4,100,29.56,10.0,SSE,20.7,31.1,N/A,,Overcast,160,2014-04-05 01:08:00
9:12 PM,37.4,37.4,100,29.56,10.0,SSE,24.2,31.1,N/A,,Overcast,160,2014-04-05 01:12:00
9:36 PM,37.4,37.4,100,29.57,10.0,SSE,20.7,28.8,N/A,,Overcast,160,2014-04-05 01:36:00
9:58 PM,38.1,37.4,97,29.59,10.0,SSE,23.0,29.9,0.01,,Overcast,160,2014-04-05 01:58:00
9:59 PM,39.2,37.4,93,29.57,10.0,SSE,23.0,29.9,N/A,Rain,Light Rain,160,2014-04-05 01:59:00
10:09 PM,39.2,37.4,93,29.57,10.0,SSE,17.3,-,N/A,Rain,Light Rain,160,2014-04-05 02:09:00
10:19 PM,39.2,37.4,93,29.56,10.0,SSE,24.2,29.9,N/A,,Overcast,150,2014-04-05 02:19:00
10:24 PM,39.2,37.4,93,29.57,10.0,SSE,20.7,29.9,N/A,,Overcast,150,2014-04-05 02:24:00
10:44 PM,39.2,37.4,93,29.57,10.0,SSE,20.7,-,N/A,,Overcast,150,2014-04-05 02:44:00
10:58 PM,38.3,37.4,97,29.60,10.0,SSE,17.3,-,0.00,,Overcast,150,2014-04-05 02:58:00
10:59 PM,39.2,37.4,93,29.58,10.0,SSE,18.4,-,N/A,,Overcast,150,2014-04-05 02:59:00
11:07 PM,39.2,37.4,93,29.58,10.0,SSE,18.4,-,N/A,,Overcast,150,2014-04-05 03:07:00
11:58 PM,38.1,37.6,98,29.61,10.0,SSE,16.1,-,0.00,,Overcast,150,2014-04-05 03:58:00